Regional Weather Roundup
Issued by NWS

Home | Current Version | Previous Version | Text Only | Print | Product List | Glossary On
Versions: 1 2 3 4 5 6 7 8 9 10 11 12 13 14 15 16 17 18 19 20 21 22 23 24 25 26 27 28 29 30 31 32 33 34 35 36 37 38 39 40 41 42 43 44 45 46 47 48 49 50
000
ASUS43 KBIS 162310
RWRND

NORTH DAKOTA REGIONAL WEATHER ROUNDUP
NATIONAL WEATHER SERVICE BISMARCK ND
500 PM CST SAT DEC 16 2017

NOTE: "FAIR" INDICATES FEW OR NO CLOUDS BELOW 12,000 FEET WITH NO
SIGNIFICANT WEATHER AND/OR OBSTRUCTIONS TO VISIBILITY.


NDZ001>003-009>011-017-170000-
NORTHWEST NORTH DAKOTA

CITY           SKY/WX    TMP DP  RH WIND       PRES   REMARKS
WILLISTON      PTCLDY    31  22  69 SW8       29.98R
MINOT          PTCLDY    35  23  61 SW13      29.94R
MINOT AFB      CLOUDY    31  22  68 W13       29.92R
$$

NDZ018>021-031>035-040>046-170000-
SOUTHWEST NORTH DAKOTA

CITY           SKY/WX    TMP DP  RH WIND       PRES   REMARKS
BISMARCK       CLOUDY    36  31  82 W7        29.99R
DICKINSON      MOCLDY    31  22  69 W8        29.96R
GARRISON         N/A     31  26  82 W7        29.96R
HETTINGER ARPT CLOUDY    33  22  63 NW6       29.99R
$$

NDZ004>008-012>016-024-026-027-054-170000-
NORTHEAST NORTH DAKOTA

CITY           SKY/WX    TMP DP  RH WIND       PRES   REMARKS
GRAND FORKS    CLOUDY    18  17  96 CALM      29.97R
GRND FRKS AFB  CLOUDY    21  18  90 CALM      29.97R
DEVILS LAKE    CLEAR     26  24  92 S3        29.94R
$$

NDZ022-023-025-028>030-036>039-047>053-170000-
SOUTHEAST NORTH DAKOTA

CITY           SKY/WX    TMP DP  RH WIND       PRES   REMARKS
FARGO          PTCLDY    27  25  92 SW3       29.99R
JAMESTOWN      CLOUDY    33  30  88 CALM      29.97R
$$




USA.gov is the U.S. government's official web portal to all federal, state and local government web resources and services.